Cosmos 1805 - Orbit

View from above orbital plane
View from above orbital plane
View from above satellite
View from above satellite

Ground track
Ground track

The orbit data is extracted from the following two-line orbital elements,

1 17191U 86097A   13145.28153202  .00002037  00000-0  14118-3 0  6230
2 17191 082.5017 042.9799 0012315 096.5123 263.7506 15.05064023439845
Epoch (UTC): 25 May 2013 06:45:24
Eccentricity: 0.0012315
inclination: 82.5017°
perigee height: 543 km
apogee height: 560 km
right ascension of ascending node: 42.9799°
argument of perigee: 96.5123°
revolutions per day: 15.05064023
mean anomaly at epoch: 263.7506°
orbit number at epoch: 43984

The dashed part of the orbit path shows where the satellite is in the earth's shadow,  

Developed and maintained by Chris Peat, Heavens-Above GmbH. Please read the updated FAQ before sending e-mail. Imprint. DLR